Zurück zum Katalog

CZ-6A DEB

AktivPO
NORAD 61486·DEBRIS·🇨🇳 China

Gestartet Aug 6, 2024 von Taiyuan Satellite Launch Center

Loading…

Nächste Überflüge (nächste 24 Stunden)

TLE

AktuellSource: Space-Track

Epoche: Sep 14, 2026, 12:08 UTC

1 61486U 24140AAU 26257.50589637  .00535465  00000-0  77982-2 0  9994
2 61486  89.1641 275.5858 0024957 126.5737 233.7829 15.53602955108806

Verfolge CZ-6A DEB in Echtzeit mit AllMySat

Download on the App Store